"Period start","avg(HW err(1)/warn(2) (#))","avg(Visibility (m))","avg(Weather code (#))","avg(Precip intensity (mm/h))","min(HW err(1)/warn(2) (#))","max(HW err(1)/warn(2) (#))","std(HW err(1)/warn(2) (#))","med(HW err(1)/warn(2) (#))","min(Visibility (m))","max(Visibility (m))","std(Visibility (m))","med(Visibility (m))","min(Weather code (#))","max(Weather code (#))","std(Weather code (#))","med(Weather code (#))","min(Precip intensity (mm/h))","max(Precip intensity (mm/h))","std(Precip intensity (mm/h))","med(Precip intensity (mm/h))"
2013-09-13 00:00:00,2,8980,10,0.00,2,2,0,2,7759,11713,1141,8680,10,10,0,10,0.00,0.00,0.00,0.00
2013-09-13 00:10:00,2,8161,10,0.00,2,2,0,2,5432,13184,2323,7256,10,10,0,10,0.00,0.00,0.00,0.00
2013-09-13 00:20:00,2,23247,7,0.00,2,2,0,2,10966,45213,11071,20052,0,10,5,10,0.00,0.00,0.00,0.00
2013-09-13 00:30:00,2,25125,0,0.00,2,2,0,2,17708,37851,6201,24686,0,0,0,0,0.00,0.00,0.00,0.00
2013-09-13 00:40:00,2,21064,0,0.00,2,2,0,2,13902,34513,6606,20056,0,0,0,0,0.00,0.00,0.00,0.00
2013-09-13 00:50:00,2,17869,0,0.00,2,2,0,2,7741,34503,9415,13138,0,0,0,0,0.00,0.00,0.00,0.00
2013-09-13 01:00:00,2,5929,5,0.00,2,2,0,2,5037,7712,819,5670,0,10,5,5,0.00,0.00,0.00,0.00
2013-09-13 01:10:00,2,8923,10,0.00,2,2,0,2,5925,16684,3216,7766,10,10,0,10,0.00,0.00,0.00,0.00
2013-09-13 01:20:00,2,18265,8,0.00,2,2,0,2,10102,28832,6166,16931,0,10,4,10,0.00,0.00,0.00,0.00
2013-09-13 01:30:00,2,18202,0,0.00,2,2,0,2,12288,38766,7335,15792,0,0,0,0,0.00,0.00,0.00,0.00
2013-09-13 01:40:00,2,22466,0,0.00,2,2,0,2,8145,37585,10829,23496,0,0,0,0,0.00,0.00,0.00,0.00
2013-09-13 01:50:00,2,20545,0,0.00,2,2,0,2,9719,42195,10877,17808,0,0,0,0,0.00,0.00,0.00,0.00
2013-09-13 02:00:00,2,19294,0,0.00,2,2,0,2,7965,33211,9153,16657,0,0,0,0,0.00,0.00,0.00,0.00
2013-09-13 02:10:00,2,27420,0,0.00,2,2,0,2,9299,41893,11366,26588,0,0,0,0,0.00,0.00,0.00,0.00
2013-09-13 02:20:00,2,22737,0,0.00,2,2,0,2,14583,41551,7786,19318,0,0,0,0,0.00,0.00,0.00,0.00
2013-09-13 02:30:00,2,24514,0,0.00,2,2,0,2,11749,46230,11929,21607,0,0,0,0,0.00,0.00,0.00,0.00
2013-09-13 02:40:00,2,31364,0,0.00,2,2,0,2,18451,37484,5629,32165,0,0,0,0,0.00,0.00,0.00,0.00
2013-09-13 02:50:00,2,37188,0,0.00,2,2,0,2,30383,46130,4079,37129,0,0,0,0,0.00,0.00,0.00,0.00
2013-09-13 03:00:00,2,45000,0,0.00,2,2,0,2,39220,50000,4347,44070,0,0,0,0,0.00,0.00,0.00,0.00
2013-09-13 03:10:00,2,45398,0,0.00,2,2,0,2,38437,50000,4547,46524,0,0,0,0,0.00,0.00,0.00,0.00
2013-09-13 03:20:00,2,46371,0,0.00,2,2,0,2,28398,50000,7122,50000,0,0,0,0,0.00,0.00,0.00,0.00
2013-09-13 03:30:00,2,28267,0,0.00,2,2,0,2,21554,37744,4408,28468,0,0,0,0,0.00,0.00,0.00,0.00
2013-09-13 03:40:00,2,38521,0,0.00,2,2,0,2,23585,48126,7074,39531,0,0,0,0,0.00,0.00,0.00,0.00
2013-09-13 03:50:00,2,49698,0,0.00,2,2,0,2,48242,50000,602,50000,0,0,0,0,0.00,0.00,0.00,0.00
2013-09-13 04:00:00,2,45877,0,0.00,2,2,0,2,38965,50000,3301,46049,0,0,0,0,0.00,0.00,0.00,0.00
2013-09-13 04:10:00,2,49386,0,0.00,2,2,0,2,47754,50000,896,50000,0,0,0,0,0.00,0.00,0.00,0.00
2013-09-13 04:20:00,2,49684,0,0.00,2,2,0,2,47453,50000,766,50000,0,0,0,0,0.00,0.00,0.00,0.00
2013-09-13 04:30:00,2,48240,0,0.00,2,2,0,2,42582,50000,2309,49148,0,0,0,0,0.00,0.00,0.00,0.00
2013-09-13 04:40:00,2,49754,0,0.00,2,2,0,2,48081,50000,568,50000,0,0,0,0,0.00,0.00,0.00,0.00
2013-09-13 04:50:00,2,49868,0,0.00,2,2,0,2,49246,50000,267,50000,0,0,0,0,0.00,0.00,0.00,0.00
2013-09-13 05:00:00,2,48564,0,0.00,2,2,0,2,45510,50000,1836,49866,0,0,0,0,0.00,0.00,0.00,0.00
2013-09-13 05:10:00,2,49508,0,0.00,2,2,0,2,45080,50000,1476,50000,0,0,0,0,0.00,0.00,0.00,0.00
2013-09-13 05:20:00,2,49264,0,0.00,2,2,0,2,44660,50000,1587,50000,0,0,0,0,0.00,0.00,0.00,0.00
2013-09-13 05:30:00,2,49617,0,0.00,2,2,0,2,46170,50000,1149,50000,0,0,0,0,0.00,0.00,0.00,0.00
2013-09-13 05:40:00,2,49551,0,0.00,2,2,0,2,46268,50000,1111,50000,0,0,0,0,0.00,0.00,0.00,0.00
2013-09-13 05:50:00,2,49968,0,0.00,2,2,0,2,49682,50000,95,50000,0,0,0,0,0.00,0.00,0.00,0.00
2013-09-13 06:00:00,2,49924,0,0.00,2,2,0,2,49245,50000,226,50000,0,0,0,0,0.00,0.00,0.00,0.00
2013-09-13 06:10:00,2,48922,0,0.00,2,2,0,2,42243,50000,2324,50000,0,0,0,0,0.00,0.00,0.00,0.00
2013-09-13 06:20:00,2,49502,0,0.00,2,2,0,2,46399,50000,1082,50000,0,0,0,0,0.00,0.00,0.00,0.00
2013-09-13 06:30:00,2,49248,0,0.00,2,2,0,2,45985,50000,1336,50000,0,0,0,0,0.00,0.00,0.00,0.00
2013-09-13 06:40:00,2,50000,0,0.00,2,2,0,2,50000,50000,0,50000,0,0,0,0,0.00,0.00,0.00,0.00
2013-09-13 06:50:00,2,49887,0,0.00,2,2,0,2,48867,50000,340,50000,0,0,0,0,0.00,0.00,0.00,0.00
2013-09-13 07:00:00,2,50000,0,0.00,2,2,0,2,50000,50000,0,50000,0,0,0,0,0.00,0.00,0.00,0.00
2013-09-13 07:10:00,2,50000,0,0.00,2,2,0,2,50000,50000,0,50000,0,0,0,0,0.00,0.00,0.00,0.00
2013-09-13 07:20:00,2,50000,0,0.00,2,2,0,2,50000,50000,0,50000,0,0,0,0,0.00,0.00,0.00,0.00
2013-09-13 07:30:00,2,50000,0,0.00,2,2,0,2,50000,50000,0,50000,0,0,0,0,0.00,0.00,0.00,0.00
2013-09-13 07:40:00,2,50000,0,0.00,2,2,0,2,50000,50000,0,50000,0,0,0,0,0.00,0.00,0.00,0.00
2013-09-13 07:50:00,2,49762,0,0.00,2,2,0,2,47621,50000,714,50000,0,0,0,0,0.00,0.00,0.00,0.00
2013-09-13 08:00:00,2,50000,0,0.00,2,2,0,2,50000,50000,0,50000,0,0,0,0,0.00,0.00,0.00,0.00
2013-09-13 08:10:00,2,49818,0,0.00,2,2,0,2,48563,50000,433,50000,0,0,0,0,0.00,0.00,0.00,0.00
2013-09-13 08:20:00,2,49871,0,0.00,2,2,0,2,48711,50000,387,50000,0,0,0,0,0.00,0.00,0.00,0.00
2013-09-13 08:30:00,2,50000,0,0.00,2,2,0,2,50000,50000,0,50000,0,0,0,0,0.00,0.00,0.00,0.00
2013-09-13 08:40:00,2,49769,0,0.00,2,2,0,2,48334,50000,516,50000,0,0,0,0,0.00,0.00,0.00,0.00
2013-09-13 08:50:00,2,49665,0,0.00,2,2,0,2,47466,50000,771,50000,0,0,0,0,0.00,0.00,0.00,0.00
2013-09-13 09:00:00,2,49567,0,0.00,2,2,0,2,45744,50000,1275,50000,0,0,0,0,0.00,0.00,0.00,0.00
2013-09-13 09:10:00,2,50000,0,0.00,2,2,0,2,50000,50000,0,50000,0,0,0,0,0.00,0.00,0.00,0.00
2013-09-13 09:20:00,2,49913,0,0.00,2,2,0,2,49133,50000,260,50000,0,0,0,0,0.00,0.00,0.00,0.00
2013-09-13 09:30:00,2,49951,0,0.00,2,2,0,2,49514,50000,146,50000,0,0,0,0,0.00,0.00,0.00,0.00
2013-09-13 09:40:00,2,50000,0,0.00,2,2,0,2,50000,50000,0,50000,0,0,0,0,0.00,0.00,0.00,0.00
2013-09-13 09:50:00,2,50000,0,0.00,2,2,0,2,50000,50000,0,50000,0,0,0,0,0.00,0.00,0.00,0.00
2013-09-13 10:00:00,2,50000,0,0.00,2,2,0,2,50000,50000,0,50000,0,0,0,0,0.00,0.00,0.00,0.00
2013-09-13 10:10:00,2,50000,0,0.00,2,2,0,2,50000,50000,0,50000,0,0,0,0,0.00,0.00,0.00,0.00
2013-09-13 10:20:00,2,50000,0,0.00,2,2,0,2,50000,50000,0,50000,0,0,0,0,0.00,0.00,0.00,0.00
2013-09-13 10:30:00,2,49995,0,0.00,2,2,0,2,49947,50000,16,50000,0,0,0,0,0.00,0.00,0.00,0.00
2013-09-13 10:40:00,2,49966,0,0.00,2,2,0,2,49664,50000,101,50000,0,0,0,0,0.00,0.00,0.00,0.00
2013-09-13 10:50:00,2,50000,0,0.00,2,2,0,2,50000,50000,0,50000,0,0,0,0,0.00,0.00,0.00,0.00
2013-09-13 11:00:00,2,50000,0,0.00,2,2,0,2,50000,50000,0,50000,0,0,0,0,0.00,0.00,0.00,0.00
2013-09-13 11:10:00,2,50000,0,0.00,2,2,0,2,50000,50000,0,50000,0,0,0,0,0.00,0.00,0.00,0.00
2013-09-13 11:20:00,2,50000,0,0.00,2,2,0,2,50000,50000,0,50000,0,0,0,0,0.00,0.00,0.00,0.00
2013-09-13 11:30:00,2,50000,0,0.00,2,2,0,2,50000,50000,0,50000,0,0,0,0,0.00,0.00,0.00,0.00
2013-09-13 11:40:00,2,50000,0,0.00,2,2,0,2,50000,50000,0,50000,0,0,0,0,0.00,0.00,0.00,0.00
2013-09-13 11:50:00,2,50000,0,0.00,2,2,0,2,50000,50000,0,50000,0,0,0,0,0.00,0.00,0.00,0.00
2013-09-13 12:00:00,2,50000,0,0.00,2,2,0,2,50000,50000,0,50000,0,0,0,0,0.00,0.00,0.00,0.00
2013-09-13 12:10:00,2,50000,0,0.00,2,2,0,2,50000,50000,0,50000,0,0,0,0,0.00,0.00,0.00,0.00
2013-09-13 12:20:00,2,50000,0,0.00,2,2,0,2,50000,50000,0,50000,0,0,0,0,0.00,0.00,0.00,0.00
2013-09-13 12:30:00,2,50000,0,0.00,2,2,0,2,50000,50000,0,50000,0,0,0,0,0.00,0.00,0.00,0.00
2013-09-13 12:40:00,2,50000,0,0.00,2,2,0,2,50000,50000,0,50000,0,0,0,0,0.00,0.00,0.00,0.00
2013-09-13 12:50:00,2,50000,0,0.00,2,2,0,2,50000,50000,0,50000,0,0,0,0,0.00,0.00,0.00,0.00
2013-09-13 13:00:00,2,50000,0,0.00,2,2,0,2,50000,50000,0,50000,0,0,0,0,0.00,0.00,0.00,0.00
2013-09-13 13:10:00,2,50000,0,0.00,2,2,0,2,50000,50000,0,50000,0,0,0,0,0.00,0.00,0.00,0.00
2013-09-13 13:20:00,2,50000,0,0.00,2,2,0,2,50000,50000,0,50000,0,0,0,0,0.00,0.00,0.00,0.00
2013-09-13 13:30:00,2,50000,0,0.00,2,2,0,2,50000,50000,0,50000,0,0,0,0,0.00,0.00,0.00,0.00
2013-09-13 13:40:00,2,50000,0,0.00,2,2,0,2,50000,50000,0,50000,0,0,0,0,0.00,0.00,0.00,0.00
2013-09-13 13:50:00,2,50000,0,0.00,2,2,0,2,50000,50000,0,50000,0,0,0,0,0.00,0.00,0.00,0.00
2013-09-13 14:00:00,2,50000,0,0.00,2,2,0,2,50000,50000,0,50000,0,0,0,0,0.00,0.00,0.00,0.00
2013-09-13 14:10:00,2,50000,0,0.00,2,2,0,2,50000,50000,0,50000,0,0,0,0,0.00,0.00,0.00,0.00
2013-09-13 14:20:00,2,50000,0,0.00,2,2,0,2,50000,50000,0,50000,0,0,0,0,0.00,0.00,0.00,0.00
2013-09-13 14:30:00,2,50000,0,0.00,2,2,0,2,50000,50000,0,50000,0,0,0,0,0.00,0.00,0.00,0.00
2013-09-13 14:40:00,2,50000,0,0.00,2,2,0,2,50000,50000,0,50000,0,0,0,0,0.00,0.00,0.00,0.00
2013-09-13 14:50:00,2,50000,0,0.00,2,2,0,2,50000,50000,0,50000,0,0,0,0,0.00,0.00,0.00,0.00
2013-09-13 15:00:00,2,50000,0,0.00,2,2,0,2,50000,50000,0,50000,0,0,0,0,0.00,0.00,0.00,0.00
2013-09-13 15:10:00,2,50000,0,0.00,2,2,0,2,50000,50000,0,50000,0,0,0,0,0.00,0.00,0.00,0.00
2013-09-13 15:20:00,2,50000,0,0.00,2,2,0,2,50000,50000,0,50000,0,0,0,0,0.00,0.00,0.00,0.00
2013-09-13 15:30:00,2,50000,0,0.00,2,2,0,2,50000,50000,0,50000,0,0,0,0,0.00,0.00,0.00,0.00
2013-09-13 15:40:00,2,50000,0,0.00,2,2,0,2,50000,50000,0,50000,0,0,0,0,0.00,0.00,0.00,0.00
2013-09-13 15:50:00,2,50000,0,0.00,2,2,0,2,50000,50000,0,50000,0,0,0,0,0.00,0.00,0.00,0.00
2013-09-13 16:00:00,2,50000,0,0.00,2,2,0,2,50000,50000,0,50000,0,0,0,0,0.00,0.00,0.00,0.00
2013-09-13 16:10:00,2,50000,0,0.00,2,2,0,2,50000,50000,0,50000,0,0,0,0,0.00,0.00,0.00,0.00
2013-09-13 16:20:00,2,50000,0,0.00,2,2,0,2,50000,50000,0,50000,0,0,0,0,0.00,0.00,0.00,0.00
2013-09-13 16:30:00,2,50000,0,0.00,2,2,0,2,50000,50000,0,50000,0,0,0,0,0.00,0.00,0.00,0.00
2013-09-13 16:40:00,2,50000,0,0.00,2,2,0,2,50000,50000,0,50000,0,0,0,0,0.00,0.00,0.00,0.00
2013-09-13 16:50:00,2,50000,0,0.00,2,2,0,2,50000,50000,0,50000,0,0,0,0,0.00,0.00,0.00,0.00
2013-09-13 17:00:00,2,50000,0,0.00,2,2,0,2,50000,50000,0,50000,0,0,0,0,0.00,0.00,0.00,0.00
2013-09-13 17:10:00,2,50000,0,0.00,2,2,0,2,50000,50000,0,50000,0,0,0,0,0.00,0.00,0.00,0.00
2013-09-13 17:20:00,2,50000,0,0.00,2,2,0,2,50000,50000,0,50000,0,0,0,0,0.00,0.00,0.00,0.00
2013-09-13 17:30:00,2,50000,0,0.00,2,2,0,2,50000,50000,0,50000,0,0,0,0,0.00,0.00,0.00,0.00
2013-09-13 17:40:00,2,50000,0,0.00,2,2,0,2,50000,50000,0,50000,0,0,0,0,0.00,0.00,0.00,0.00
2013-09-13 17:50:00,2,50000,0,0.00,2,2,0,2,50000,50000,0,50000,0,0,0,0,0.00,0.00,0.00,0.00
2013-09-13 18:00:00,2,50000,0,0.00,2,2,0,2,50000,50000,0,50000,0,0,0,0,0.00,0.00,0.00,0.00
2013-09-13 18:10:00,2,50000,0,0.00,2,2,0,2,50000,50000,0,50000,0,0,0,0,0.00,0.00,0.00,0.00
2013-09-13 18:20:00,2,49986,0,0.00,2,2,0,2,49863,50000,41,50000,0,0,0,0,0.00,0.00,0.00,0.00
2013-09-13 18:30:00,2,50000,0,0.00,2,2,0,2,50000,50000,0,50000,0,0,0,0,0.00,0.00,0.00,0.00
2013-09-13 18:40:00,2,50000,0,0.00,2,2,0,2,50000,50000,0,50000,0,0,0,0,0.00,0.00,0.00,0.00
2013-09-13 18:50:00,2,50000,0,0.00,2,2,0,2,50000,50000,0,50000,0,0,0,0,0.00,0.00,0.00,0.00
2013-09-13 19:00:00,2,50000,0,0.00,2,2,0,2,50000,50000,0,50000,0,0,0,0,0.00,0.00,0.00,0.00
2013-09-13 19:10:00,2,50000,0,0.00,2,2,0,2,50000,50000,0,50000,0,0,0,0,0.00,0.00,0.00,0.00
2013-09-13 19:20:00,2,49453,0,0.00,2,2,0,2,46751,50000,1118,50000,0,0,0,0,0.00,0.00,0.00,0.00
2013-09-13 19:30:00,2,41513,0,0.00,2,2,0,2,26198,50000,7555,41414,0,0,0,0,0.00,0.00,0.00,0.00
2013-09-13 19:40:00,2,37552,0,0.00,2,2,0,2,7509,50000,16102,49094,0,0,0,0,0.00,0.00,0.00,0.00
2013-09-13 19:50:00,2,17824,0,0.00,2,2,0,2,6972,38174,11312,11888,0,0,0,0,0.00,0.00,0.00,0.00
2013-09-13 20:00:00,2,24306,0,0.00,2,2,0,2,11625,43481,9982,23936,0,0,0,0,0.00,0.00,0.00,0.00
2013-09-13 20:10:00,2,36253,0,0.00,2,2,0,2,9128,46487,11089,40764,0,0,0,0,0.00,0.00,0.00,0.00
2013-09-13 20:20:00,2,19753,0,0.00,2,2,0,2,7671,43068,11676,15689,0,0,0,0,0.00,0.00,0.00,0.00
2013-09-13 20:30:00,2,23939,0,0.00,2,2,0,2,8398,45153,13046,26706,0,0,0,0,0.00,0.00,0.00,0.00
2013-09-13 20:40:00,2,43052,0,0.00,2,2,0,2,29270,50000,7942,47550,0,0,0,0,0.00,0.00,0.00,0.00
2013-09-13 20:50:00,2,16757,0,0.00,2,2,0,2,10964,42116,9115,13379,0,0,0,0,0.00,0.00,0.00,0.00
2013-09-13 21:00:00,2,9045,1,0.00,2,2,0,2,5862,12927,2025,8509,0,10,3,0,0.00,0.00,0.00,0.00
2013-09-13 21:10:00,2,39920,6,0.00,2,2,0,2,13919,50000,12184,45662,0,10,5,10,0.00,0.00,0.00,0.00
2013-09-13 21:20:00,2,24213,0,0.00,2,2,0,2,7341,49679,13947,19996,0,0,0,0,0.00,0.00,0.00,0.00
2013-09-13 21:30:00,2,19143,7,0.00,2,2,0,2,4866,44419,15189,10436,0,10,5,10,0.00,0.00,0.00,0.00
2013-09-13 21:40:00,2,25977,3,0.00,2,2,0,2,4717,49415,18332,27410,0,10,5,0,0.00,0.00,0.00,0.00
2013-09-13 21:50:00,2,10248,8,0.00,2,2,0,2,6066,17956,3463,9214,0,10,4,10,0.00,0.00,0.00,0.00
2013-09-13 22:00:00,2,37082,4,0.00,2,2,0,2,20835,50000,10281,39434,0,10,5,0,0.00,0.00,0.00,0.00
2013-09-13 22:10:00,2,45953,0,0.00,2,2,0,2,36873,50000,4977,49598,0,0,0,0,0.00,0.00,0.00,0.00
2013-09-13 22:20:00,2,28837,0,0.00,2,2,0,2,16932,48520,10667,27858,0,0,0,0,0.00,0.00,0.00,0.00
2013-09-13 22:30:00,2,48048,0,0.00,2,2,0,2,39356,50000,3768,50000,0,0,0,0,0.00,0.00,0.00,0.00
2013-09-13 22:40:00,2,49826,0,0.00,2,2,0,2,48255,50000,524,50000,0,0,0,0,0.00,0.00,0.00,0.00
2013-09-13 22:50:00,2,50000,0,0.00,2,2,0,2,50000,50000,0,50000,0,0,0,0,0.00,0.00,0.00,0.00
2013-09-13 23:00:00,2,50000,0,0.00,2,2,0,2,50000,50000,0,50000,0,0,0,0,0.00,0.00,0.00,0.00
2013-09-13 23:10:00,2,50000,0,0.00,2,2,0,2,50000,50000,0,50000,0,0,0,0,0.00,0.00,0.00,0.00
2013-09-13 23:20:00,2,50000,0,0.00,2,2,0,2,50000,50000,0,50000,0,0,0,0,0.00,0.00,0.00,0.00
2013-09-13 23:30:00,2,48734,0,0.00,2,2,0,2,40188,50000,2972,50000,0,0,0,0,0.00,0.00,0.00,0.00
2013-09-13 23:40:00,2,49902,0,0.00,2,2,0,2,49021,50000,294,50000,0,0,0,0,0.00,0.00,0.00,0.00
2013-09-13 23:50:00,2,50000,0,0.00,2,2,0,2,50000,50000,0,50000,0,0,0,0,0.00,0.00,0.00,0.00
